Location: Clynnog
(53.0167°N, 4.3667°W)
Time: 04:32:14
(UTC+00:00)

Daily predictions for brighter satellites

Satellite Brightness Start Highest point End
(mag) Time Altitude Azimuth Time Altitude Azimuth Time Altitude Azimuth
CENTAUR R/B 4.4 03:11:58 28° ENE 03:11:58 28° ENE 03:15:23 10° NE
Cosmos 2369 Rocket 4.0 03:51:55 27° ENE 03:51:55 27° ENE 03:54:53 10° NE
Cosmos 1943 Rocket 4.1 03:59:15 23° NE 03:59:15 23° NE 04:01:15 10° NNE
CZ-2C R/B 4.4 03:55:31 10° ESE 03:59:56 27° ENE 04:00:26 26° NE
Cosmos 2344 3.7 04:05:25 68° NE 04:05:25 68° NE 04:12:28 10° NE
USA 238 DEB 4.0 04:17:53 60° NE 04:17:53 60° NE 04:23:29 10° NE
USA 238 4.0 04:17:59 60° NE 04:17:59 60° NE 04:23:35 10° NE
Cosmos 2227 Rocket 4.2 04:17:14 19° NNE 04:18:01 20° NNE 04:22:06 10° ENE
SJ 16-02 4.5 04:17:47 10° ESE 04:19:31 12° E 04:21:16 10° ENE
USA 215 3.4 04:14:39 10° E 04:20:33 67° NE 04:20:33 67° NE
Lacrosse 4 Rocket 4.2 04:23:22 14° NE 04:23:22 14° NE 04:24:57 10° ENE
ATLAS 5 CENTAUR R/B 3.9 04:41:25 17° SE 04:42:16 18° ESE 04:45:07 10° ENE
Meteor 2-13 Rocket 4.4 04:44:26 77° NE 04:44:26 77° NE 04:50:11 10° NNE
Cosmos 2278 Rocket 4.1 04:51:16 17° N 04:51:16 17° N 04:53:13 10° NNE
CENTAUR R/B 2.8 04:59:09 59° NNW 04:59:10 59° NNW 05:06:44 10° NE
Cosmos 2180 Rocket 4.4 05:02:07 22° N 05:06:20 84° E 05:12:28 10° SSE
SL-19 R/B 4.1 05:03:47 10° SSE 05:09:21 80° WSW 05:09:38 77° WNW
Cosmos 1538 Rocket 4.2 05:16:45 44° N 05:18:18 67° ENE 05:23:28 10° SE
Alouette 2 Rocket 4.3 05:20:03 39° NE 05:20:30 41° ENE 05:23:56 10° SE
Meteor 1-27 Rocket 3.9 05:16:41 20° N 05:20:40 75° ENE 05:26:27 10° SSE
Cosmos 1656 Rocket 3.4 05:20:45 73° WNW 05:20:56 74° WNW 05:26:27 10° NNE
MOS 1-B Rocket 3.7 05:16:51 10° S 05:22:43 63° WSW 05:23:07 61° W
Cosmos 2297 Rocket 3.0 05:23:49 25° NNW 05:26:50 46° NE 05:32:17 10° ESE
NOSS 3-2 (A) 4.0 05:27:33 41° NW 05:28:22 43° NNW 05:35:07 10° NE
Cosmos 1607 3.9 05:26:35 45° NW 05:28:40 86° NE 05:34:51 10° SE
Meteor 2-15 Rocket 4.4 05:23:49 10° N 05:29:57 87° E 05:36:01 10° S
Cosmos 773 Rocket 4.2 05:32:07 49° SW 05:32:07 49° SW 05:36:25 10° S
FALCON 9 DEB 4.1 05:32:32 45° E 05:32:32 45° E 05:35:01 10° E
ATLAS 3B R/B 3.6 05:26:39 10° SSW 05:32:50 46° ESE 05:39:19 10° NE
Cosmos 2369 Rocket 2.3 05:33:45 50° NW 05:33:45 50° NW 05:39:10 10° NNE
Cosmos 2263 4.2 05:32:49 54° W 05:33:51 64° NW 05:39:36 10° NNE
H-2A R/B 4.0 05:30:05 10° NNE 05:39:24 - SSW 05:32:11 32° NNE
Cosmos 1503 Rocket 3.9 05:32:42 46° SW 05:34:19 75° WNW 05:39:43 10° NNE
Landsat 5 3.5 05:31:22 10° SSE 05:35:52 85° WSW 05:36:39 60° NNW
Cosmos 1340 Rocket 3.9 05:32:48 10° S 05:36:37 45° E 05:40:30 10° NNE
Cosmos 1777 Rocket 4.4 05:32:14 10° S 05:37:23 63° ESE 05:42:37 10° NNE
COSMO-SKYMED 1 2.7 05:33:31 10° S 05:37:10 55° SSW 05:37:10 55° SSW
Cosmos 158 Rocket 3.9 05:36:53 41° NNW 05:38:45 90° WSW 05:44:01 10° SSE
NOSS 3-2 (C) 3.7 05:38:34 43° WNW 05:39:50 49° NNW 05:46:40 10° NE
CZ-2C R/B 2.5 05:34:29 10° S 05:39:52 65° WSW 05:41:55 37° NW
Cosmos 1943 Rocket 3.3 05:40:47 28° NNW 05:40:47 28° NNW 05:44:50 10° NNE
CZ-4B R/B 4.1 05:37:49 10° ESE 05:39:57 17° ENE 05:42:05 10° NNE
SJ-12 3.8 05:35:56 10° NNE 05:40:06 90° WNW 05:44:15 10° SSW
Cosmos 1486 Rocket 4.4 05:41:19 44° NW 05:41:19 44° NW 05:45:54 10° NNE
Cosmos 1408 Rocket 3.4 05:38:53 10° S 05:43:11 89° W 05:47:32 10° N
FALCON 9 DEB 4.1 05:44:13 38° ESE 05:44:13 38° ESE 05:46:08 10° ESE
Cosmos 2263 Rocket 4.2 05:39:57 12° NNW 05:43:18 19° NNE 05:47:18 10° ENE
Meteor 1-31 Rocket 2.8 05:44:48 10° NNE 05:48:44 83° ESE 05:52:40 10° SSW
USA 32 4.3 05:43:54 10° N 05:49:09 67° E 05:54:22 10° SSE
Envisat 2.8 05:45:24 10° NNE 05:50:30 79° WNW 05:55:35 10° SSW
Meteor 2-15 4.4 05:46:18 17° NNW 05:50:52 56° W 05:56:45 10° S
Cosmos 2279 Rocket 4.3 05:51:08 36° WNW 05:52:20 40° W 05:58:02 10° SSW
Cosmos 923 Rocket 4.5 05:49:24 19° NNW 05:53:16 62° ENE 05:58:34 10° SE
Cosmos 1743 Rocket 3.8 05:51:08 10° S 05:55:28 69° E 05:59:49 10° NNE
CZ-2C R/B 4.0 05:51:26 10° NNE 05:56:11 48° E 06:01:10 10° S
Cosmos 1174 3.5 05:55:45 53° S 05:56:15 64° SE 05:59:32 10° NE
SJ 16-02 1.3 05:52:58 10° SSW 05:57:20 85° ESE 06:01:45 10° NNE
Cosmos 1515 Rocket 4.0 06:00:08 40° WSW 06:00:08 40° WSW 06:03:40 10° SSW
Cosmos 967 Rocket 4.5 05:58:02 26° NW 06:01:56 89° SW 06:08:26 10° SE
Lacrosse 4 Rocket 2.6 05:59:39 22° NNW 06:02:05 41° NE 06:06:21 10° ESE
Cosmos 2227 Rocket 2.7 05:59:04 18° NNW 06:03:19 58° NE 06:08:53 10° SE
SL-4 R/B 4.4 06:01:14 10° S 06:03:44 18° SE 06:06:20 10° E
USA 215 3.3 05:57:45 10° SE 06:04:15 68° SSW 06:07:53 28° WNW
Nadezhda 4 Rocket 3.9 05:59:54 10° SSW 06:06:07 80° WNW 06:12:27 10° N
Cosmos 1939 Rocket 4.5 06:02:59 10° NNE 06:06:37 35° E 06:10:11 10° SSE
USA 238 DEB 4.2 06:05:21 29° WNW 06:08:09 42° NNW 06:14:54 10° NE
USA 238 4.2 06:05:26 29° WNW 06:08:14 43° NNW 06:15:00 10° NE
Cosmos 2098 Rocket 4.2 06:08:23 32° WNW 06:08:29 32° WNW 06:13:48 10° N
Cosmos 2228 Rocket 3.0 06:05:07 13° NNW 06:09:07 85° W 06:13:40 10° S
IRAS Rocket 4.1 06:04:46 10° SSE 06:10:16 78° WSW 06:15:48 10° NNW
Okean 1 3.5 06:06:50 12° N 06:10:25 70° ENE 06:14:21 10° SSE
Meteor 2-19 Rocket 4.3 06:05:25 10° SSW 06:11:26 68° WNW 06:17:30 10° N
Meteor PRIRODA 4.0 06:12:51 10° NNE 06:16:29 64° ESE 06:20:05 10° S
Meteor 1-18 Rocket 4.5 06:12:52 10° N 06:18:45 74° ENE 06:24:28 10° SSE
Cosmos 2344 4.1 06:15:26 24° WNW 06:19:42 45° N 06:28:19 10° ENE
Cosmos 1602 3.7 06:16:14 10° S 06:20:03 80° E 06:23:53 10° NNE
COSMOS 2487 3.6 06:20:59 26° SW 06:20:59 26° SW 06:23:11 10° SSW
NOAA 11 4.2 06:14:58 10° NNE 06:20:30 89° ESE 06:26:00 10° SSW
Sich 1 3.5 06:16:30 10° S 06:20:42 63° E 06:24:57 10° NNE
Cosmos 2112 Rocket 4.3 06:16:30 12° NNW 06:21:25 68° ENE 06:26:40 10° SE
BREEZE M DEB (TANK) 3.2 06:20:59 28° WSW 06:21:50 34° SSW 06:23:52 10° SE
Cosmos 1500 Rocket 3.5 06:17:39 10° SSW 06:22:06 65° WNW 06:26:34 10° N
DMSP B5D2-2 4.0 06:17:51 10° S 06:23:01 64° WSW 06:28:14 10° NNW
ATLAS 5 CENTAUR R/B 1.3 06:22:59 16° SW 06:26:08 78° NW 06:30:45 10° NE
Meteor 1-20 Rocket 4.2 06:20:57 10° SSW 06:26:35 89° WNW 06:32:24 10° NNE
Cosmos 1092 Rocket 4.0 06:20:49 10° S 06:27:06 89° W 06:33:30 10° N
Cosmos 1500 3.6 06:23:46 10° S 06:27:31 64° E 06:31:17 10° NNE
Cosmos 1707 Rocket 3.6 06:27:13 10° N 06:31:42 84° E 06:36:09 10° SSE
H-2A R/B 2.0 06:28:59 10° S 06:33:19 72° WSW 06:37:47 10° NNW
Cosmos 1805 Rocket 3.4 06:30:24 10° SSW 06:34:46 78° W 06:39:09 10° N
Geosat FO 4.3 06:31:29 10° SSE 06:34:48 89° SSW 06:37:01 20° NNW
Cosmos 2278 Rocket 4.2 06:33:07 11° NNW 06:35:08 13° N 06:37:37 10° NNE
Cosmos 1515 4.2 06:33:41 23° NW 06:35:24 36° W 06:38:55 10° SSW
Meteor 1-19 Rocket 4.1 06:31:22 10° NNW 06:36:55 67° W 06:42:18 10° S
CZ-4C R/B 4.4 06:38:51 10° SW 06:40:23 18° WSW 06:40:23 18° WSW
Cosmos 2219 3.2 06:37:27 13° NNW 06:42:37 84° WSW 06:48:19 10° SSE
Cosmos 1862 Rocket 3.8 06:40:56 10° N 06:45:17 70° ENE 06:49:37 10° SSE
Meteor 2-14 Rocket 4.5 06:39:19 10° S 06:45:29 89° W 06:51:40 10° N
Cosmos 724 4.3 06:41:14 17° NW 06:45:53 66° SW 06:51:37 10° SSE
FALCON 9 DEB 4.0 06:45:44 20° WSW 06:46:55 28° SSW 06:49:25 10° SSE
FALCON 9 DEB 3.9 06:47:24 20° WSW 06:48:42 29° SSW 06:51:14 10° SE
FALCON 9 DEB 3.7 06:48:56 21° W 06:50:24 36° SSW 06:53:05 10° SE
CENTAUR R/B 3.6 06:46:20 17° WNW 06:51:19 38° N 06:58:49 10° ENE
Cosmos 1627 Rocket 4.5 06:45:53 10° SSW 06:52:11 72° WNW 06:58:28 10° N
AQUARIUS 4.5 06:49:26 10° NNE 06:53:57 73° ESE 06:58:26 10° S
Cosmos 1666 2.9 06:52:23 10° S 06:56:08 74° E 06:59:54 10° NNE
Okean O Rocket 3.8 06:57:32 10° NNE 07:01:27 30° E 07:05:19 10° SSE
NOAA 12 4.0 06:56:17 10° NNE 07:01:32 68° WNW 07:06:43 10° SSW
CZ-4 R/B 4.3 07:00:47 10° NE 07:03:10 16° E 07:05:33 10° SE
ADEOS 3.9 07:00:30 10° N 07:05:23 42° WNW 07:10:17 10° SW
H-2A R/B 4.4 07:05:32 10° NNW 07:07:11 14° NW 07:07:11 14° NW
Cosmos 2082 3.8 07:01:50 10° NNW 07:07:32 82° ENE 07:13:13 10° SE
FALCON 9 DEB 3.6 07:05:34 14° W 07:08:18 51° SSW 07:11:36 10° SE
Cosmos 2297 Rocket 2.7 07:05:38 10° NW 07:10:52 42° WSW 07:16:09 10° S
Cosmos 2026 Rocket 4.1 07:05:12 10° SSW 07:11:23 56° WNW 07:17:31 10° N
CZ-4B R/B 1.7 07:08:32 10° S 07:11:41 44° W 07:14:47 10° NNW
Cosmos 1340 Rocket 4.0 07:10:08 10° WSW 07:13:17 22° WNW 07:16:30 10° N
Cosmos 1633 Rocket 3.0 07:10:05 10° SSW 07:14:25 83° W 07:18:48 10° N
Meteor 2-21 Rocket 4.4 07:08:44 10° SSW 07:14:56 75° WNW 07:21:07 10° N
Cosmos 1378 3.1 07:12:34 10° NNW 07:16:19 72° W 07:20:01 10° S
CZ-4B R/B 3.3 07:14:11 10° N 07:17:24 32° WNW 07:20:39 10° SW
FALCON 9 DEB 4.2 07:15:43 10° W 07:18:07 26° SSW 07:20:36 10° SSE
Cosmos 2369 Rocket 3.7 07:15:35 11° WNW 07:19:05 18° NNW 07:22:54 10° NNE
Cosmos 1680 Rocket 4.0 07:14:42 10° NW 07:19:40 42° WSW 07:24:35 10° S
CZ-2C R/B 4.4 07:19:21 10° WSW 07:21:12 12° W 07:23:03 10° WNW
Cosmos 1553 Rocket 4.1 07:16:02 10° NNW 07:21:57 54° W 07:27:51 10° SSW
Cosmos 1544 3.8 07:18:51 10° S 07:22:21 56° E 07:25:52 10° NNE
Meteor 1-31 Rocket 4.5 07:20:26 10° NNW 07:22:34 14° WNW 07:24:42 10° W
ATLAS 3B R/B 2.7 07:16:50 10° WSW 07:23:24 62° NW 07:30:23 10° NE
SMAP 3.1 07:18:55 10° N 07:23:30 58° WNW 07:28:04 10° SSW
Cosmos 1703 Rocket 4.1 07:19:58 10° N 07:24:24 64° ENE 07:28:50 10° SSE
Cosmos 2242 Rocket 4.3 07:20:37 10° N 07:25:05 58° ENE 07:29:34 10° SSE
H-2A R/B 2.1 07:20:25 10° NNE 07:25:22 82° ESE 07:30:20 10° SSW
S3M 4.1 07:19:16 10° NNW 07:25:41 75° W 07:32:03 10° S
Cosmos 1943 Rocket 4.0 07:22:54 10° NW 07:25:41 14° NNW 07:28:28 10° NNE
Okean 1-7 3.4 07:24:03 10° N 07:28:23 70° ENE 07:32:42 10° SSE
Cosmos 2263 Rocket 2.7 07:22:54 10° NNW 07:28:27 58° NE 07:33:59 10° SE
Envisat 4.4 07:25:36 10° NNW 07:28:47 17° NW 07:31:58 10° W
CORIOLIS 4.2 07:24:19 10° NNE 07:29:45 69° WNW 07:35:09 10° SSW
Timation 2 Rocket 4.2 07:24:18 10° NW 07:30:50 64° WSW 07:37:01 10° SSE
Lacrosse 5 2.8 07:26:46 10° SW 07:31:43 53° SE 07:36:42 10° ENE
CZ-2D R/B 3.2 07:29:34 10° N 07:33:20 60° WNW 07:37:04 10° SSW
Cosmos 1898 Rocket 3.5 07:29:17 10° SSW 07:34:36 75° WNW 07:39:57 10° NNE
CZ-2C R/B 3.7 07:31:40 10° N 07:35:58 31° WNW 07:40:24 10° WSW
Meteor 1-14 Rocket 4.2 07:30:48 10° SSW 07:36:21 67° WNW 07:42:02 10° N
SJ 16-02 2.8 07:33:29 10° W 07:36:32 18° NW 07:39:36 10° N
Cosmos 1844 Rocket 4.3 07:35:08 10° NNW 07:39:47 26° NE 07:44:26 10° E
Lacrosse 4 Rocket 2.3 07:36:37 10° NW 07:40:47 39° WSW 07:44:56 10° S
